Time,TemperatureF,DewpointF,PressureIn,WindDirection,WindDirectionDegrees,WindSpeedMPH,WindSpeedGustMPH,Humidity,HourlyPrecipIn,Conditions,Clouds,dailyrainin,SoftwareType,DateUTC
2013-10-04 00:11:00,54.2,52.0,29.90,NNW,337,7.0,-999.0,92,-99.99,,,0.00,weatherlink.com 1.10,2013-10-04 05:11:00,
2013-10-04 00:25:00,54.1,52.0,29.90,NNW,332,6.0,-999.0,92,-99.99,,,0.00,weatherlink.com 1.10,2013-10-04 05:25:00,
2013-10-04 00:39:00,54.1,52.0,29.90,NNE,22,2.0,-999.0,92,-99.99,,,0.00,weatherlink.com 1.10,2013-10-04 05:39:00,
2013-10-04 00:53:00,54.1,52.0,29.91,NNE,33,3.0,-999.0,92,-99.99,,,0.00,weatherlink.com 1.10,2013-10-04 05:53:00,
2013-10-04 01:08:00,54.1,52.0,29.91,North,2,11.0,-999.0,92,-99.99,,,0.00,weatherlink.com 1.10,2013-10-04 06:08:00,
2013-10-04 01:22:00,54.0,52.0,29.90,NNE,27,5.0,-999.0,92,-99.99,,,0.00,weatherlink.com 1.10,2013-10-04 06:22:00,
2013-10-04 01:37:00,53.9,52.0,29.90,NNE,15,6.0,-999.0,92,-99.99,,,0.00,weatherlink.com 1.10,2013-10-04 06:37:00,
2013-10-04 01:51:00,53.9,52.0,29.91,North,4,5.0,-999.0,92,-99.99,,,0.00,weatherlink.com 1.10,2013-10-04 06:51:00,
2013-10-04 02:05:00,53.9,52.0,29.91,NNE,19,5.0,-999.0,92,-99.99,,,0.00,weatherlink.com 1.10,2013-10-04 07:05:00,
2013-10-04 02:20:00,53.8,52.0,29.92,NNE,25,5.0,-999.0,92,-99.99,,,0.00,weatherlink.com 1.10,2013-10-04 07:20:00,
2013-10-04 02:34:00,53.8,52.0,29.92,North,359,3.0,-999.0,92,-99.99,,,0.00,weatherlink.com 1.10,2013-10-04 07:34:00,
2013-10-04 02:48:00,53.8,52.0,29.92,NNE,16,5.0,-999.0,92,-99.99,,,0.00,weatherlink.com 1.10,2013-10-04 07:48:00,
2013-10-04 03:03:00,53.8,52.0,29.91,North,355,5.0,-999.0,92,-99.99,,,0.00,weatherlink.com 1.10,2013-10-04 08:03:00,
2013-10-04 03:17:00,53.7,51.0,29.91,North,2,4.0,-999.0,92,-99.99,,,0.00,weatherlink.com 1.10,2013-10-04 08:17:00,
2013-10-04 03:31:00,53.7,51.0,29.91,North,8,5.0,-999.0,92,-99.99,,,0.00,weatherlink.com 1.10,2013-10-04 08:31:00,
2013-10-04 03:46:00,53.7,51.0,29.91,North,354,10.0,-999.0,92,-99.99,,,0.00,weatherlink.com 1.10,2013-10-04 08:46:00,
2013-10-04 04:00:00,53.7,51.0,29.92,NNE,25,4.0,-999.0,92,-99.99,,,0.00,weatherlink.com 1.10,2013-10-04 09:00:00,
2013-10-04 04:14:00,53.7,51.0,29.92,North,2,7.0,-999.0,92,-99.99,,,0.00,weatherlink.com 1.10,2013-10-04 09:14:00,
2013-10-04 04:29:00,53.8,52.0,29.92,NNE,17,4.0,-999.0,92,-99.99,,,0.00,weatherlink.com 1.10,2013-10-04 09:29:00,
2013-10-04 04:43:00,53.9,52.0,29.92,NE,36,5.0,-999.0,92,-99.99,,,0.00,weatherlink.com 1.10,2013-10-04 09:43:00,
2013-10-04 04:57:00,54.0,52.0,29.92,NNW,348,6.0,-999.0,93,-99.99,,,0.00,weatherlink.com 1.10,2013-10-04 09:57:00,
2013-10-04 05:12:00,54.0,52.0,29.92,ENE,59,4.0,-999.0,93,-99.99,,,0.00,weatherlink.com 1.10,2013-10-04 10:12:00,
2013-10-04 05:26:00,54.1,52.0,29.92,NNE,20,2.0,-999.0,93,-99.99,,,0.00,weatherlink.com 1.10,2013-10-04 10:26:00,
2013-10-04 05:40:00,54.1,52.0,29.91,North,11,5.0,-999.0,93,-99.99,,,0.00,weatherlink.com 1.10,2013-10-04 10:40:00,
2013-10-04 05:54:00,54.2,52.0,29.92,NNE,24,5.0,-999.0,93,-99.99,,,0.00,weatherlink.com 1.10,2013-10-04 10:54:00,
2013-10-04 06:09:00,54.3,52.0,29.93,North,2,8.0,-999.0,93,-99.99,,,0.00,weatherlink.com 1.10,2013-10-04 11:09:00,
2013-10-04 06:23:00,54.4,52.0,29.93,North,360,9.0,-999.0,93,-99.99,,,0.00,weatherlink.com 1.10,2013-10-04 11:23:00,
2013-10-04 06:38:00,54.4,52.0,29.93,North,6,4.0,-999.0,93,-99.99,,,0.00,weatherlink.com 1.10,2013-10-04 11:38:00,
2013-10-04 06:52:00,54.5,53.0,29.93,NNE,27,4.0,-999.0,93,-99.99,,,0.00,weatherlink.com 1.10,2013-10-04 11:52:00,
2013-10-04 07:06:00,54.6,53.0,29.93,North,349,9.0,-999.0,93,-99.99,,,0.00,weatherlink.com 1.10,2013-10-04 12:06:00,
2013-10-04 07:21:00,54.7,53.0,29.94,NNE,23,7.0,-999.0,93,-99.99,,,0.00,weatherlink.com 1.10,2013-10-04 12:21:00,
2013-10-04 07:35:00,54.8,53.0,29.94,NE,48,7.0,-999.0,93,-99.99,,,0.00,weatherlink.com 1.10,2013-10-04 12:35:00,
2013-10-04 07:49:00,54.8,53.0,29.93,NE,56,5.0,-999.0,93,-99.99,,,0.00,weatherlink.com 1.10,2013-10-04 12:49:00,
2013-10-04 08:04:00,54.8,53.0,29.93,NNE,18,3.0,-999.0,92,-99.99,,,0.00,weatherlink.com 1.10,2013-10-04 13:04:00,
2013-10-04 08:18:00,54.9,53.0,29.93,ENE,72,3.0,-999.0,92,-99.99,,,0.00,weatherlink.com 1.10,2013-10-04 13:18:00,
2013-10-04 08:32:00,54.9,53.0,29.92,NNE,12,11.0,-999.0,92,-99.99,,,0.00,weatherlink.com 1.10,2013-10-04 13:32:00,
2013-10-04 08:47:00,54.9,53.0,29.92,North,4,7.0,-999.0,92,-99.99,,,0.00,weatherlink.com 1.10,2013-10-04 13:47:00,
2013-10-04 09:01:00,55.0,53.0,29.93,NNE,25,5.0,-999.0,92,-99.99,,,0.00,weatherlink.com 1.10,2013-10-04 14:01:00,
2013-10-04 09:15:00,55.0,52.0,29.92,NNW,348,11.0,-999.0,91,-99.99,,,0.00,weatherlink.com 1.10,2013-10-04 14:15:00,
2013-10-04 09:30:00,55.0,52.0,29.92,NNW,345,5.0,-999.0,91,-99.99,,,0.00,weatherlink.com 1.10,2013-10-04 14:30:00,
2013-10-04 09:44:00,55.1,53.0,29.92,North,358,4.0,-999.0,91,-99.99,,,0.00,weatherlink.com 1.10,2013-10-04 14:44:00,
2013-10-04 09:58:00,55.3,52.0,29.92,NNE,16,3.0,-999.0,90,-99.99,,,0.00,weatherlink.com 1.10,2013-10-04 14:58:00,
2013-10-04 10:13:00,55.4,53.0,29.92,ENE,68,5.0,-999.0,90,-99.99,,,0.00,weatherlink.com 1.10,2013-10-04 15:13:00,
2013-10-04 10:27:00,55.4,53.0,29.93,ENE,76,12.0,-999.0,90,-99.99,,,0.00,weatherlink.com 1.10,2013-10-04 15:27:00,
2013-10-04 10:41:00,55.5,52.0,29.94,North,8,1.0,-999.0,89,-99.99,,,0.00,weatherlink.com 1.10,2013-10-04 15:41:00,
2013-10-04 10:56:00,55.5,52.0,29.95,East,85,2.0,-999.0,89,-99.99,,,0.00,weatherlink.com 1.10,2013-10-04 15:56:00,
2013-10-04 11:10:00,55.7,53.0,29.94,North,359,6.0,-999.0,89,-99.99,,,0.00,weatherlink.com 1.10,2013-10-04 16:10:00,
2013-10-04 11:24:00,55.8,53.0,29.93,NE,42,10.0,-999.0,89,-99.99,,,0.00,weatherlink.com 1.10,2013-10-04 16:24:00,
2013-10-04 11:39:00,56.0,53.0,29.93,North,7,5.0,-999.0,89,-99.99,,,0.00,weatherlink.com 1.10,2013-10-04 16:39:00,
2013-10-04 11:53:00,56.3,53.0,29.95,North,351,13.0,-999.0,88,-99.99,,,0.00,weatherlink.com 1.10,2013-10-04 16:53:00,
2013-10-04 12:08:00,56.5,53.0,29.95,ENE,67,1.0,-999.0,88,-99.99,,,0.00,weatherlink.com 1.10,2013-10-04 17:08:00,
2013-10-04 12:22:00,56.7,53.0,29.94,ENE,73,2.0,-999.0,87,-99.99,,,0.00,weatherlink.com 1.10,2013-10-04 17:22:00,
2013-10-04 12:36:00,56.8,53.0,29.95,East,93,7.0,-999.0,87,-99.99,,,0.00,weatherlink.com 1.10,2013-10-04 17:36:00,
2013-10-04 13:05:00,56.7,53.0,29.94,North,1,6.0,-999.0,87,-99.99,,,0.00,weatherlink.com 1.10,2013-10-04 18:05:00,
2013-10-04 13:19:00,56.8,53.0,29.94,North,4,4.0,-999.0,88,-99.99,,,0.00,weatherlink.com 1.10,2013-10-04 18:19:00,
2013-10-04 13:34:00,56.9,53.0,29.92,North,10,4.0,-999.0,88,-99.99,,,0.00,weatherlink.com 1.10,2013-10-04 18:34:00,
2013-10-04 13:48:00,57.1,54.0,29.90,NNW,344,7.0,-999.0,88,-99.99,,,0.00,weatherlink.com 1.10,2013-10-04 18:48:00,
2013-10-04 14:02:00,57.3,54.0,29.90,East,98,4.0,-999.0,88,-99.99,,,0.00,weatherlink.com 1.10,2013-10-04 19:02:00,
2013-10-04 14:17:00,57.2,54.0,29.89,North,360,11.0,-999.0,88,-99.99,,,0.00,weatherlink.com 1.10,2013-10-04 19:17:00,
2013-10-04 14:31:00,57.3,54.0,29.89,ENE,68,5.0,-999.0,88,-99.99,,,0.00,weatherlink.com 1.10,2013-10-04 19:31:00,
2013-10-04 14:45:00,57.4,54.0,29.89,North,4,6.0,-999.0,88,-99.99,,,0.00,weatherlink.com 1.10,2013-10-04 19:45:00,
2013-10-04 15:00:00,57.6,54.0,29.88,NNE,14,8.0,-999.0,88,-99.99,,,0.00,weatherlink.com 1.10,2013-10-04 20:00:00,
2013-10-04 15:14:00,57.6,54.0,29.87,NNE,18,12.0,-999.0,87,-99.99,,,0.00,weatherlink.com 1.10,2013-10-04 20:14:00,
2013-10-04 15:28:00,57.6,54.0,29.88,ENE,62,7.0,-999.0,87,-99.99,,,0.00,weatherlink.com 1.10,2013-10-04 20:28:00,
2013-10-04 15:43:00,57.6,54.0,29.88,ESE,106,7.0,-999.0,87,-99.99,,,0.00,weatherlink.com 1.10,2013-10-04 20:43:00,
2013-10-04 15:57:00,57.7,54.0,29.88,SSW,195,6.0,-999.0,87,-99.99,,,0.00,weatherlink.com 1.10,2013-10-04 20:57:00,
2013-10-04 16:11:00,57.7,54.0,29.90,WNW,285,3.0,-999.0,87,-99.99,,,0.00,weatherlink.com 1.10,2013-10-04 21:11:00,
2013-10-04 16:26:00,57.7,54.0,29.89,East,79,7.0,-999.0,88,-99.99,,,0.00,weatherlink.com 1.10,2013-10-04 21:26:00,
2013-10-04 16:40:00,57.6,54.0,29.90,ENE,68,9.0,-999.0,88,-99.99,,,0.00,weatherlink.com 1.10,2013-10-04 21:40:00,
2013-10-04 16:54:00,57.6,54.0,29.89,East,95,7.0,-999.0,87,-99.99,,,0.00,weatherlink.com 1.10,2013-10-04 21:54:00,
2013-10-04 17:09:00,57.6,54.0,29.89,ENE,69,17.0,-999.0,88,-99.99,,,0.00,weatherlink.com 1.10,2013-10-04 22:09:00,
2013-10-04 17:23:00,57.6,54.0,29.89,ENE,66,3.0,-999.0,88,-99.99,,,0.00,weatherlink.com 1.10,2013-10-04 22:23:00,
2013-10-04 17:37:00,57.7,54.0,29.88,North,8,2.0,-999.0,88,-99.99,,,0.00,weatherlink.com 1.10,2013-10-04 22:37:00,
2013-10-04 17:51:00,57.7,54.0,29.88,NNE,30,4.0,-999.0,88,-99.99,,,0.00,weatherlink.com 1.10,2013-10-04 22:51:00,
2013-10-04 18:06:00,57.7,54.0,29.87,East,87,6.0,-999.0,88,-99.99,,,0.00,weatherlink.com 1.10,2013-10-04 23:06:00,
2013-10-04 18:20:00,57.7,54.0,29.86,ENE,58,6.0,-999.0,87,-99.99,,,0.00,weatherlink.com 1.10,2013-10-04 23:20:00,
2013-10-04 18:35:00,57.7,54.0,29.86,NNW,347,10.0,-999.0,88,-99.99,,,0.00,weatherlink.com 1.10,2013-10-04 23:35:00,
2013-10-04 18:49:00,57.6,54.0,29.86,SE,131,2.0,-999.0,88,-99.99,,,0.00,weatherlink.com 1.10,2013-10-04 23:49:00,
2013-10-04 19:03:00,57.7,54.0,29.86,NNE,23,4.0,-999.0,88,-99.99,,,0.00,weatherlink.com 1.10,2013-10-05 00:03:00,
2013-10-04 19:18:00,57.7,54.0,29.88,ESE,103,5.0,-999.0,88,-99.99,,,0.00,weatherlink.com 1.10,2013-10-05 00:18:00,
2013-10-04 19:32:00,57.7,54.0,29.87,NNW,331,6.0,-999.0,88,-99.99,,,0.00,weatherlink.com 1.10,2013-10-05 00:32:00,
2013-10-04 19:46:00,57.6,54.0,29.87,ENE,65,10.0,-999.0,89,-99.99,,,0.00,weatherlink.com 1.10,2013-10-05 00:46:00,
2013-10-04 20:01:00,57.5,54.0,29.87,ENE,73,7.0,-999.0,89,-99.99,,,0.00,weatherlink.com 1.10,2013-10-05 01:01:00,
2013-10-04 20:15:00,57.5,55.0,29.87,NNW,328,17.0,-999.0,90,-99.99,,,0.00,weatherlink.com 1.10,2013-10-05 01:15:00,
2013-10-04 20:29:00,57.3,54.0,29.86,East,85,7.0,-999.0,90,-99.99,,,0.01,weatherlink.com 1.10,2013-10-05 01:29:00,
2013-10-04 20:43:00,57.1,54.0,29.85,NNW,327,3.0,-999.0,91,-99.99,,,0.05,weatherlink.com 1.10,2013-10-05 01:43:00,
2013-10-04 20:58:00,57.1,54.0,29.82,ENE,72,7.0,-999.0,91,-99.99,,,0.06,weatherlink.com 1.10,2013-10-05 01:58:00,
2013-10-04 21:12:00,56.9,54.0,29.81,East,85,14.0,-999.0,91,-99.99,,,0.07,weatherlink.com 1.10,2013-10-05 02:12:00,
2013-10-04 21:26:00,56.9,55.0,29.80,ESE,116,2.0,-999.0,92,-99.99,,,0.07,weatherlink.com 1.10,2013-10-05 02:26:00,
2013-10-04 21:41:00,56.9,55.0,29.82,East,80,11.0,-999.0,92,-99.99,,,0.07,weatherlink.com 1.10,2013-10-05 02:41:00,
2013-10-04 21:55:00,57.0,55.0,29.81,East,100,7.0,-999.0,92,-99.99,,,0.07,weatherlink.com 1.10,2013-10-05 02:55:00,
2013-10-04 22:10:00,57.1,55.0,29.80,East,89,16.0,-999.0,92,-99.99,,,0.07,weatherlink.com 1.10,2013-10-05 03:10:00,
2013-10-04 22:24:00,57.1,55.0,29.80,NNE,18,11.0,-999.0,92,-99.99,,,0.07,weatherlink.com 1.10,2013-10-05 03:24:00,
2013-10-04 22:38:00,57.1,55.0,29.80,NE,47,9.0,-999.0,92,-99.99,,,0.08,weatherlink.com 1.10,2013-10-05 03:38:00,
2013-10-04 22:52:00,57.2,55.0,29.79,ESE,104,12.0,-999.0,92,-99.99,,,0.08,weatherlink.com 1.10,2013-10-05 03:52:00,
2013-10-04 23:07:00,57.3,55.0,29.81,North,10,4.0,-999.0,92,-99.99,,,0.11,weatherlink.com 1.10,2013-10-05 04:07:00,
2013-10-04 23:21:00,57.4,55.0,29.81,ENE,75,15.0,-999.0,92,-99.99,,,0.17,weatherlink.com 1.10,2013-10-05 04:21:00,
2013-10-04 23:36:00,57.4,55.0,29.80,ESE,106,11.0,-999.0,92,-99.99,,,0.24,weatherlink.com 1.10,2013-10-05 04:36:00,
2013-10-04 23:50:00,57.4,55.0,29.79,East,98,5.0,-999.0,92,-99.99,,,0.28,weatherlink.com 1.10,2013-10-05 04:50:00,